When you browse on this site, cookies collect data to enhance your experience and personalize the content and advertising you see.
Visit our Privacy Policy to learn more. By continuing to use the site, you agree to this use of cookies and data.
  • Em Portugal
  • Lista de países
  • Para 7 dias
  • Temperatura da água
  • Mapas de satélite
  • Mapa do tempo
  • Widgets de tempo
  • user-avatar
    Iniciar Sessão

    Previsão horária em Melbourne

    Hoje, 13 Dezembro, Quinta-feira

    Tempo Temperatura Precipitação Vento Pressão Humidade
    00:00 +23°C° 0 mm 1 m/s 749 mmHg 70%
    01:00 +23°C° 0 mm 1 m/s 748 mmHg 69%
    02:00 +23°C° 0 mm 1 m/s 748 mmHg 69%
    03:00 +23°C° 0 mm 2 m/s 747 mmHg 70%
    04:00 +21°C° 0 mm 1 m/s 747 mmHg 73%
    05:00 +21°C° 0.5 mm 1 m/s 747 mmHg 75%
    06:00 +21°C° 0.5 mm 1 m/s 747 mmHg 76%
    07:00 +22°C° 0.5 mm 1 m/s 747 mmHg 77%
    08:00 +23°C° 0.2 mm 2 m/s 747 mmHg 74%
    09:00 +24°C° 0.2 mm 2 m/s 746 mmHg 70%
    10:00 +25°C° 0.2 mm 2 m/s 746 mmHg 67%
    11:00 +24°C° 1.2 mm 3 m/s 746 mmHg 75%
    12:00 +21°C° 1.2 mm 3 m/s 746 mmHg 83%
    13:00 +19°C° 1.2 mm 4 m/s 746 mmHg 92%
    14:00 +19°C° 2.1 mm 4 m/s 746 mmHg 92%
    15:00 +19°C° 2.1 mm 4 m/s 746 mmHg 92%
    16:00 +19°C° 2.1 mm 3 m/s 746 mmHg 93%
    17:00 +19°C° 0.3 mm 3 m/s 746 mmHg 93%
    18:00 +19°C° 0.3 mm 3 m/s 746 mmHg 94%
    19:00 +19°C° 0.3 mm 3 m/s 745 mmHg 95%
    20:00 +19°C° 0.1 mm 3 m/s 746 mmHg 95%
    21:00 +19°C° 0.1 mm 4 m/s 746 mmHg 96%
    22:00 +19°C° 0.1 mm 4 m/s 746 mmHg 96%
    23:00 +19°C° 0.1 mm 4 m/s 746 mmHg 96%

    Amanhã, 14 Dezembro, Sexta-feira

    Tempo Temperatura Precipitação Vento Pressão Humidade
    00:00 +19°C° 0.1 mm 4 m/s 746 mmHg 97%
    01:00 +18°C° 0.1 mm 3 m/s 745 mmHg 97%
    02:00 +19°C° 0.5 mm 3 m/s 746 mmHg 97%
    03:00 +19°C° 0.5 mm 2 m/s 746 mmHg 97%
    04:00 +19°C° 0.5 mm 2 m/s 747 mmHg 97%
    05:00 +18°C° 0.3 mm 2 m/s 747 mmHg 95%
    06:00 +18°C° 0.3 mm 3 m/s 748 mmHg 92%
    07:00 +18°C° 0.3 mm 3 m/s 749 mmHg 89%
    08:00 +17°C° 1 mm 3 m/s 750 mmHg 86%
    09:00 +17°C° 1 mm 2 m/s 750 mmHg 82%
    10:00 +17°C° 1 mm 2 m/s 751 mmHg 79%
    11:00 +19°C° 0.3 mm 2 m/s 750 mmHg 71%
    12:00 +23°C° 0.3 mm 2 m/s 750 mmHg 63%
    13:00 +25°C° 0.3 mm 3 m/s 750 mmHg 54%
    14:00 +24°C° 3.5 mm 2 m/s 750 mmHg 65%
    15:00 +21°C° 3.5 mm 2 m/s 750 mmHg 75%
    16:00 +20°C° 3.5 mm 2 m/s 750 mmHg 85%
    17:00 +20°C° 1.2 mm 2 m/s 750 mmHg 88%
    18:00 +21°C° 1.2 mm 1 m/s 750 mmHg 92%
    19:00 +20°C° 1.2 mm 1 m/s 751 mmHg 95%
    20:00 +20°C° 0.2 mm 1 m/s 751 mmHg 96%
    21:00 +20°C° 0.2 mm 1 m/s 751 mmHg 96%
    22:00 +17°C° 0.2 mm 0 m/s 752 mmHg 97%
    23:00 +19°C° 0.2 mm 1 m/s 752 mmHg 97%

    Depois de amanhã, 15 Dezembro, Sábado

    Tempo Temperatura Precipitação Vento Pressão Humidade
    00:00 +19°C° 0.2 mm 1 m/s 751 mmHg 97%
    01:00 +18°C° 0.2 mm 2 m/s 751 mmHg 98%
    02:00 +18°C° 0.2 mm 2 m/s 751 mmHg 98%
    03:00 +18°C° 0.2 mm 2 m/s 751 mmHg 98%
    04:00 +18°C° 0.2 mm 2 m/s 751 mmHg 98%
    05:00 +19°C° 0 mm 2 m/s 751 mmHg 94%
    06:00 +21°C° 0 mm 1 m/s 751 mmHg 91%
    07:00 +22°C° 0 mm 1 m/s 752 mmHg 87%
    08:00 +24°C° 0 mm 2 m/s 752 mmHg 72%
    09:00 +26°C° 0 mm 2 m/s 752 mmHg 56%
    10:00 +28°C° 0 mm 2 m/s 752 mmHg 40%
    11:00 +29°C° 0 mm 3 m/s 751 mmHg 37%
    12:00 +29°C° 0 mm 3 m/s 751 mmHg 34%
    13:00 +30°C° 0 mm 3 m/s 751 mmHg 32%
    14:00 +29°C° 0 mm 3 m/s 751 mmHg 33%
    15:00 +29°C° 0 mm 3 m/s 750 mmHg 34%
    16:00 +29°C° 0 mm 3 m/s 750 mmHg 35%
    17:00 +27°C° 0 mm 2 m/s 750 mmHg 43%
    18:00 +25°C° 0 mm 1 m/s 750 mmHg 50%
    19:00 +24°C° 0 mm 1 m/s 750 mmHg 58%
    20:00 +23°C° 0 mm 1 m/s 751 mmHg 63%
    21:00 +22°C° 0 mm 1 m/s 751 mmHg 68%
    22:00 +21°C° 0 mm 1 m/s 751 mmHg 73%
    23:00 +19°C° 0.6 mm 2 m/s 751 mmHg 77%

    16 Dezembro, Domingo

    Tempo Temperatura Precipitação Vento Pressão Humidade
    00:00 +19°C° 0.6 mm 2 m/s 750 mmHg 81%
    01:00 +18°C° 0.6 mm 2 m/s 750 mmHg 85%
    02:00 +18°C° 1.2 mm 2 m/s 750 mmHg 86%
    03:00 +18°C° 1.2 mm 2 m/s 750 mmHg 86%
    04:00 +17°C° 1.2 mm 2 m/s 750 mmHg 87%
    05:00 +18°C° 0.6 mm 2 m/s 751 mmHg 85%
    06:00 +18°C° 0.6 mm 3 m/s 751 mmHg 84%
    07:00 +18°C° 0.6 mm 3 m/s 752 mmHg 82%
    08:00 +20°C° 0.1 mm 3 m/s 752 mmHg 71%
    09:00 +24°C° 0.1 mm 3 m/s 752 mmHg 60%
    10:00 +26°C° 0.1 mm 3 m/s 752 mmHg 50%
    11:00 +26°C° 0.2 mm 3 m/s 752 mmHg 49%
    12:00 +27°C° 0.2 mm 2 m/s 752 mmHg 48%
    13:00 +28°C° 0.2 mm 2 m/s 752 mmHg 47%
    14:00 +27°C° 0.2 mm 2 m/s 752 mmHg 49%
    15:00 +27°C° 0.2 mm 2 m/s 752 mmHg 51%
    16:00 +27°C° 0.2 mm 2 m/s 752 mmHg 53%
    17:00 +26°C° 0.1 mm 2 m/s 752 mmHg 58%
    18:00 +25°C° 0.1 mm 1 m/s 752 mmHg 63%
    19:00 +24°C° 0.1 mm 1 m/s 752 mmHg 67%
    20:00 +23°C° 0 mm 1 m/s 753 mmHg 70%
    21:00 +22°C° 0 mm 1 m/s 753 mmHg 73%
    22:00 +21°C° 0 mm 1 m/s 753 mmHg 75%
    23:00 +20°C° 0 mm 2 m/s 753 mmHg 79%

    17 Dezembro, Segunda-feira

    Tempo Temperatura Precipitação Vento Pressão Humidade
    00:00 +19°C° 0 mm 2 m/s 753 mmHg 83%
    01:00 +19°C° 0 mm 3 m/s 753 mmHg 87%
    02:00 +18°C° 0 mm 3 m/s 754 mmHg 88%
    03:00 +18°C° 0 mm 3 m/s 754 mmHg 90%
    04:00 +18°C° 0 mm 3 m/s 754 mmHg 91%
    05:00 +18°C° 0 mm 3 m/s 754 mmHg 89%
    06:00 +19°C° 0 mm 3 m/s 755 mmHg 87%
    07:00 +20°C° 0 mm 3 m/s 755 mmHg 85%
    08:00 +20°C° 0 mm 3 m/s 756 mmHg 83%
    09:00 +21°C° 0 mm 3 m/s 756 mmHg 81%
    10:00 +21°C° 0 mm 3 m/s 756 mmHg 78%
    11:00 +22°C° 0 mm 3 m/s 756 mmHg 76%
    12:00 +22°C° 0 mm 3 m/s 756 mmHg 74%
    13:00 +24°C° 0 mm 3 m/s 756 mmHg 72%
    14:00 +22°C° 0 mm 4 m/s 757 mmHg 72%
    15:00 +22°C° 0 mm 4 m/s 757 mmHg 72%
    16:00 +22°C° 0 mm 4 m/s 757 mmHg 72%
    17:00 +21°C° 0 mm 4 m/s 757 mmHg 75%
    18:00 +21°C° 0 mm 4 m/s 758 mmHg 78%
    19:00 +20°C° 0 mm 4 m/s 758 mmHg 81%
    20:00 +19°C° 0 mm 3 m/s 759 mmHg 85%
    21:00 +18°C° 0 mm 3 m/s 759 mmHg 88%
    22:00 +17°C° 0 mm 3 m/s 760 mmHg 91%
    23:00 +17°C° 0 mm 3 m/s 759 mmHg 91%

    18 Dezembro, Terça-feira

    Tempo Temperatura Precipitação Vento Pressão Humidade
    00:00 +17°C° 0 mm 2 m/s 759 mmHg 91%
    01:00 +16°C° 0 mm 2 m/s 759 mmHg 90%
    02:00 +16°C° 0 mm 2 m/s 759 mmHg 91%
    03:00 +16°C° 0 mm 2 m/s 759 mmHg 91%
    04:00 +16°C° 0 mm 2 m/s 759 mmHg 91%
    05:00 +16°C° 0 mm 2 m/s 759 mmHg 89%
    06:00 +17°C° 0 mm 2 m/s 759 mmHg 86%
    07:00 +17°C° 0 mm 2 m/s 760 mmHg 83%
    08:00 +19°C° 0 mm 2 m/s 760 mmHg 76%
    09:00 +21°C° 0 mm 2 m/s 760 mmHg 69%
    10:00 +23°C° 0 mm 2 m/s 760 mmHg 62%
    11:00 +25°C° 0 mm 3 m/s 760 mmHg 57%
    12:00 +27°C° 0 mm 3 m/s 759 mmHg 52%
    13:00 +28°C° 0 mm 3 m/s 759 mmHg 47%
    14:00 +29°C° 0 mm 3 m/s 758 mmHg 49%
    15:00 +29°C° 0 mm 3 m/s 758 mmHg 50%
    16:00 +29°C° 0 mm 4 m/s 758 mmHg 51%
    17:00 +27°C° 0 mm 3 m/s 758 mmHg 57%
    18:00 +26°C° 0 mm 3 m/s 758 mmHg 63%
    19:00 +25°C° 0 mm 3 m/s 758 mmHg 70%
    20:00 +22°C° 0 mm 3 m/s 759 mmHg 75%
    21:00 +21°C° 0 mm 3 m/s 759 mmHg 80%
    22:00 +20°C° 0 mm 2 m/s 759 mmHg 85%
    23:00 +19°C° 0 mm 2 m/s 758 mmHg 87%
    Mostrar mais